Попина лъка ТХ сензор Про Measurements

Back to Overview

Timestamp Temperature Humidity
5/4/2026 5:46:00 PM 11,7 C 45.7%
5/4/2026 5:38:58 PM 12,0 C 44.3%
5/4/2026 5:31:57 PM 12,2 C 44.3%
5/4/2026 5:24:54 PM 12,2 C 42.9%
5/4/2026 5:17:53 PM 12,6 C 41.3%
5/4/2026 5:10:51 PM 12,9 C 43.3%
5/4/2026 5:04:49 PM 12,8 C 40.2%
5/4/2026 4:57:48 PM 12,5 C 42.3%
5/4/2026 4:50:46 PM 12,4 C 41.6%
5/4/2026 4:43:43 PM 12,7 C 41.6%
5/4/2026 4:36:42 PM 13,2 C 38.9%
5/4/2026 4:29:40 PM 13,8 C 37.7%
5/4/2026 4:22:37 PM 14,0 C 37.5%
5/4/2026 4:19:36 PM 13,3 C 38.5%
5/4/2026 4:12:34 PM 13,2 C 36.7%
5/4/2026 4:05:32 PM 13,3 C 36.5%
5/4/2026 3:58:30 PM 13,4 C 37.3%
5/4/2026 3:51:28 PM 13,5 C 37.2%
5/4/2026 3:44:57 PM 14,2 C 35.1%
5/4/2026 3:40:41 PM 14,9 C 36.0%
5/4/2026 3:37:24 PM 15,5 C 34.4%
5/4/2026 3:35:08 PM 16,3 C 32.9%
5/4/2026 3:32:36 PM 17,0 C 32.7%
5/4/2026 3:26:34 PM 17,7 C 32.4%
5/4/2026 3:19:32 PM 18,1 C 31.1%
5/4/2026 3:17:47 PM 18,5 C 27.9%
5/4/2026 3:11:30 PM 19,2 C 30.9%
5/4/2026 3:10:59 PM 19,1 C 34.0%
5/4/2026 3:07:42 PM 18,4 C 31.9%
5/4/2026 3:00:40 PM 18,0 C 30.4%
5/4/2026 2:58:54 PM 18,3 C 26.8%
5/4/2026 2:52:21 PM 18,2 C 30.0%
5/4/2026 2:50:35 PM 18,8 C 26.2%
5/4/2026 2:48:04 PM 18,8 C 30.4%
5/4/2026 2:45:33 PM 19,1 C 26.6%
5/4/2026 2:39:30 PM 18,5 C 30.1%
5/4/2026 2:34:14 PM 17,8 C 30.4%
5/4/2026 2:33:13 PM 17,9 C 26.4%
5/4/2026 2:32:11 PM 18,0 C 29.6%
5/4/2026 2:30:55 PM 18,2 C 25.6%
5/4/2026 2:25:39 PM 18,1 C 29.0%
5/4/2026 2:18:37 PM 17,9 C 28.9%
5/4/2026 2:16:06 PM 18,4 C 25.2%
5/4/2026 2:10:52 PM 18,8 C 28.3%
5/4/2026 2:08:34 PM 18,3 C 31.5%
5/4/2026 2:07:48 PM 18,2 C 28.0%
5/4/2026 2:07:01 PM 18,1 C 31.3%
5/4/2026 2:04:31 PM 18,1 C 27.5%
5/4/2026 2:02:59 PM 18,1 C 31.2%
5/4/2026 2:01:43 PM 18,2 C 26.5%
5/4/2026 1:57:12 PM 18,1 C 30.2%
5/4/2026 1:55:55 PM 18,4 C 27.0%
5/4/2026 1:53:09 PM 18,7 C 30.5%
5/4/2026 1:47:22 PM 18,2 C 34.3%
5/4/2026 1:44:05 PM 18,5 C 30.6%
5/4/2026 1:40:49 PM 18,0 C 35.7%
5/4/2026 1:33:47 PM 17,5 C 32.9%
5/4/2026 1:31:31 PM 18,2 C 30.4%
5/4/2026 1:31:00 PM 18,2 C 35.5%
5/4/2026 1:23:58 PM 17,9 C 33.3%
5/4/2026 1:22:12 PM 17,7 C 37.5%
5/4/2026 1:15:55 PM 17,7 C 33.1%
5/4/2026 1:15:25 PM 17,7 C 36.9%
5/4/2026 1:10:22 PM 17,4 C 33.7%
5/4/2026 1:08:37 PM 17,0 C 38.5%
5/4/2026 1:07:21 PM 16,9 C 34.3%
5/4/2026 1:02:48 PM 16,3 C 37.6%
5/4/2026 1:02:02 PM 16,4 C 33.2%
5/4/2026 12:59:47 PM 16,1 C 38.0%
5/4/2026 12:56:45 PM 16,1 C 34.2%
5/4/2026 12:49:43 PM 16,3 C 36.1%
5/4/2026 12:49:12 PM 16,3 C 39.4%
5/4/2026 12:42:10 PM 15,6 C 38.3%
5/4/2026 12:40:54 PM 15,8 C 34.0%
5/4/2026 12:36:22 PM 15,5 C 38.0%
5/4/2026 12:29:20 PM 15,9 C 36.2%
5/4/2026 12:28:18 PM 16,2 C 32.2%
5/4/2026 12:27:33 PM 16,4 C 35.3%
5/4/2026 12:23:01 PM 16,3 C 38.7%
5/4/2026 12:15:59 PM 15,6 C 38.7%
5/4/2026 12:14:58 PM 15,5 C 35.2%
5/4/2026 12:13:57 PM 15,5 C 38.5%
5/4/2026 12:06:55 PM 14,9 C 38.8%
5/4/2026 12:03:39 PM 15,1 C 35.6%
5/4/2026 12:03:23 PM 15,1 C 39.9%
5/4/2026 12:02:51 PM 14,9 C 43.7%
5/4/2026 11:59:50 AM 14,4 C 40.3%
5/4/2026 11:58:19 AM 14,5 C 36.9%
5/4/2026 11:52:17 AM 13,9 C 40.0%
5/4/2026 11:50:46 AM 14,0 C 36.5%
5/4/2026 11:49:45 AM 14,1 C 39.7%
5/4/2026 11:48:44 AM 14,1 C 36.6%
5/4/2026 11:45:12 AM 14,0 C 40.5%
5/4/2026 11:44:41 AM 14,0 C 36.8%
5/4/2026 11:40:10 AM 13,4 C 39.9%
5/4/2026 11:38:10 AM 13,6 C 36.6%
5/4/2026 11:35:08 AM 13,4 C 41.5%
5/4/2026 11:28:06 AM 13,2 C 39.5%
5/4/2026 11:26:05 AM 13,2 C 42.6%
5/4/2026 11:25:20 AM 13,3 C 38.4%
5/4/2026 11:24:06 AM 13,2 C 43.6%
5/4/2026 11:20:17 AM 13,1 C 40.3%
5/4/2026 11:17:01 AM 12,6 C 43.8%
5/4/2026 11:13:29 AM 11,9 C 45.1%
5/4/2026 11:10:43 AM 11,8 C 41.6%
5/4/2026 11:07:26 AM 11,3 C 45.2%
5/4/2026 11:03:55 AM 11,2 C 42.1%
5/4/2026 11:02:25 AM 11,4 C 38.7%
5/4/2026 10:58:52 AM 12,1 C 39.5%
5/4/2026 10:52:52 AM 11,8 C 43.0%
5/4/2026 10:51:05 AM 11,5 C 46.4%
5/4/2026 10:46:03 AM 10,8 C 45.6%
5/4/2026 10:44:02 AM 10,7 C 42.4%
5/4/2026 10:43:01 AM 10,6 C 46.0%
5/4/2026 10:41:45 AM 10,2 C 49.7%
5/4/2026 10:36:59 AM 9,6 C 46.6%
5/4/2026 10:34:42 AM 9,6 C 42.7%
5/4/2026 10:31:55 AM 9,2 C 46.9%
5/4/2026 10:29:54 AM 9,3 C 43.2%
5/4/2026 10:28:39 AM 9,3 C 46.3%
5/4/2026 10:21:36 AM 8,7 C 46.9%
5/4/2026 10:20:20 AM 8,5 C 50.6%
5/4/2026 10:13:17 AM 8,6 C 48.3%
5/4/2026 10:08:15 AM 8,1 C 52.6%
5/4/2026 10:06:14 AM 7,8 C 56.0%
5/4/2026 10:04:58 AM 7,6 C 52.7%
5/4/2026 10:00:11 AM 7,0 C 56.1%
5/4/2026 9:58:26 AM 6,7 C 59.5%
5/4/2026 9:52:09 AM 6,0 C 59.0%
5/4/2026 9:45:38 AM 5,3 C 57.7%
5/4/2026 9:38:36 AM 4,9 C 58.4%
5/4/2026 9:31:34 AM 4,5 C 60.7%
5/4/2026 9:24:32 AM 4,0 C 62.7%
5/4/2026 9:17:32 AM 3,7 C 64.5%
5/4/2026 9:10:29 AM 3,4 C 66.2%
5/4/2026 9:03:26 AM 3,0 C 66.8%
5/4/2026 8:56:24 AM 2,7 C 67.7%
5/4/2026 8:49:22 AM 2,5 C 68.4%
5/4/2026 8:42:20 AM 2,3 C 68.6%
5/4/2026 8:35:18 AM 2,4 C 69.2%
5/4/2026 8:28:17 AM 2,6 C 69.4%
5/4/2026 8:21:14 AM 2,3 C 69.3%
5/4/2026 8:14:13 AM 2,0 C 68.5%
5/4/2026 8:07:10 AM 1,5 C 71.2%
5/4/2026 8:00:09 AM 1,4 C 70.9%
5/4/2026 7:53:07 AM 1,1 C 71.9%
5/4/2026 7:46:05 AM 0,7 C 73.0%
5/4/2026 7:39:03 AM 0,5 C 74.2%
5/4/2026 7:32:01 AM 0,2 C 74.2%
5/4/2026 7:24:59 AM 0,1 C 74.7%
5/4/2026 7:17:58 AM 0,0 C 75.3%
5/4/2026 7:10:56 AM -0,1 C 75.6%
5/4/2026 7:03:54 AM -0,1 C 75.5%
5/4/2026 6:56:53 AM -0,3 C 75.6%
5/4/2026 6:49:51 AM -0,3 C 75.5%
5/4/2026 6:42:49 AM -0,3 C 75.5%
5/4/2026 6:35:47 AM -0,1 C 74.9%
5/4/2026 6:28:45 AM 0,0 C 74.2%
5/4/2026 6:21:43 AM 0,1 C 73.7%
5/4/2026 6:14:41 AM 0,0 C 73.2%
5/4/2026 6:07:39 AM 0,0 C 73.6%
5/4/2026 6:00:37 AM 0,1 C 73.9%
5/4/2026 5:53:36 AM 0,2 C 74.2%
5/4/2026 5:46:33 AM 0,2 C 73.1%
5/4/2026 5:39:32 AM 0,5 C 72.4%
5/4/2026 5:32:30 AM 0,8 C 72.1%
5/4/2026 5:25:27 AM 0,9 C 70.9%
5/4/2026 5:18:25 AM 0,6 C 72.1%
5/4/2026 5:11:23 AM 0,7 C 72.7%
5/4/2026 5:04:21 AM 0,5 C 73.2%
5/4/2026 4:57:19 AM 0,3 C 74.0%
5/4/2026 4:50:17 AM 0,3 C 73.8%
5/4/2026 4:43:15 AM 0,1 C 74.7%
5/4/2026 4:36:14 AM 0,0 C 74.7%
5/4/2026 4:29:12 AM 0,0 C 75.1%
5/4/2026 4:22:10 AM 0,0 C 75.3%
5/4/2026 4:15:07 AM -0,1 C 75.0%
5/4/2026 4:08:07 AM -0,3 C 75.7%
5/4/2026 4:01:04 AM -0,8 C 75.8%
5/4/2026 3:54:02 AM -1,0 C 76.4%
5/4/2026 3:47:00 AM -1,4 C 76.1%
5/4/2026 3:39:58 AM -1,8 C 76.3%
5/4/2026 3:32:57 AM -2,0 C 77.4%
5/4/2026 3:25:55 AM -2,2 C 78.5%
5/4/2026 3:18:53 AM -2,1 C 78.8%
5/4/2026 3:11:51 AM -2,1 C 78.6%
5/4/2026 3:04:50 AM -2,1 C 79.1%
5/4/2026 2:57:47 AM -2,2 C 79.0%
5/4/2026 2:50:46 AM -2,1 C 79.0%
5/4/2026 2:43:44 AM -2,1 C 79.8%
5/4/2026 2:36:43 AM -2,1 C 79.7%
5/4/2026 2:29:41 AM -2,0 C 80.1%
5/4/2026 2:22:39 AM -2,0 C 79.4%
5/4/2026 2:15:38 AM -1,9 C 80.5%
5/4/2026 2:08:35 AM -1,9 C 80.1%
5/4/2026 2:01:34 AM -2,0 C 80.2%
5/4/2026 1:54:29 AM -1,9 C 80.6%
5/4/2026 1:47:29 AM -2,0 C 80.8%
5/4/2026 1:40:28 AM -1,9 C 81.3%
5/4/2026 1:33:26 AM -1,9 C 81.3%
5/4/2026 1:26:24 AM -1,8 C 81.0%
5/4/2026 1:19:21 AM -1,7 C 80.6%
5/4/2026 1:12:20 AM -1,7 C 81.0%
5/4/2026 1:05:18 AM -1,8 C 80.7%
5/4/2026 12:58:16 AM -1,6 C 80.8%
5/4/2026 12:51:14 AM -1,7 C 80.6%
5/4/2026 12:44:11 AM -1,7 C 80.4%
5/4/2026 12:37:09 AM -1,8 C 80.0%
5/4/2026 12:30:08 AM -1,6 C 80.2%
5/4/2026 12:23:05 AM -1,5 C 79.9%
5/4/2026 12:16:04 AM -1,3 C 79.1%
5/4/2026 12:09:01 AM -1,2 C 78.1%
5/4/2026 12:01:59 AM -1,1 C 77.5%